Details From MMUN - Cancun International
To MUHA - Havana Jose Marti Intl
Flight Number -
Tags decoded
Created
Modified
Stats Distance 308 nm / 570 km
Max Altitude 0 ft / 0 m
Waypoints 7
Social Downloads 1
Likes 0
Share VATSIM

Download

Looking for another format? Having issues loading an existing format? Contact us
Advertisement - Login to hide

Notes

Requested: MMUN CUN DUGNI IMOLO CONAR NUDAL UNG JOTAS UHA MUHA Unmatched points: DUGNI IMOLO

Route

MMUN CUN CONAR NUDAL UNG UHA MUHA

ID Type Via Altitude Latitude Longitude Leg Dist Tot Dist Heading (true) Name
O MMUN APT - 0 ft / 0 m 21.04229˚ -86.87333˚ - 0 nm - Cancun International
CUN VOR - 0 ft / 0 m 21.02511˚ -86.85872˚ 1 nm 1 nm 142° / 142° CANCUN VOR-DME
CONAR FIX - 0 ft / 0 m 21.23167˚ -85.78806˚ 61 nm 62 nm 78° / 79° -
NUDAL FIX - 0 ft / 0 m 21.26331˚ -85.62044˚ 9 nm 72 nm 79° / 79° -
UNG NDB - 0 ft / 0 m 21.75589˚ -82.87817˚ 156 nm 228 nm 79° / 80° GERONA NDB
UHA NDB - 0 ft / 0 m 22.93283˚ -82.49222˚ 73 nm 302 nm 17° / 17° HABANA NDB
O MUHA APT - 0 ft / 0 m 22.98915˚ -82.40909˚ 5 nm 307 nm 54° / 54° Havana Jose Marti Intl

Altitude Profile

Advertisement - Login to hide

Weather


0- 5 10 15 20 25 30 35+ Temperature / ° C

Clouds and Precipitation
Forecast for 2017-12-17 00:00 UTC. Updated an hour ago

Ground ~20,000 ft ~40,000 ft Winds

MMUN

Details ICAO MMUN (CUN)
Name Cancun International
Region Mexico
Timezone America/Cancun (UTC-5.0)
Stats Elevation 24 ft / 7 m (AMSL)
Location 21.042287° -86.873333°
Runways 2
Magnetic Variation 1.881° W

METAR

MMUN 162145Z 09007KT 7SM BKN015TCU BKN250 26/25 A3002 RMK 8/208 AC

Decode

TAF

Not found

Departure Runways

ID Width Length Bearing (true) Bearing (mag) Surface Threshold Offset Overrun Length
12L 148 ft / 45 m 9,150 ft / 2,789 m 123.62° 125.50° Asphalt 0 ft / 0 m 200 ft / 61 m
12R 190 ft / 58 m 11,459 ft / 3,493 m 123.84° 125.72° Asphalt 0 ft / 0 m 200 ft / 61 m
30L 190 ft / 58 m 11,459 ft / 3,493 m 303.85° 305.73° Asphalt 0 ft / 0 m 200 ft / 61 m
30R 148 ft / 45 m 9,150 ft / 2,789 m 303.63° 305.51° Asphalt 0 ft / 0 m 200 ft / 61 m

MUHA

Details ICAO MUHA (HAV)
Name Havana Jose Marti Intl
Region Cuba
Timezone America/Havana (UTC-5.0)
Stats Elevation 209 ft / 64 m (AMSL)
Location 22.989154° -82.409086°
Runways 1
Magnetic Variation 4.909° W

METAR

MUHA 162155Z 06012KT 9000 FEW025 26/21 Q1018

Decode

TAF

Not found

Destination Runways

ID Width Length Bearing (true) Bearing (mag) Surface Threshold Offset Overrun Length
06 148 ft / 45 m 13,133 ft / 4,003 m 54.21° 59.12° Asphalt 0 ft / 0 m 476 ft / 145 m
24 148 ft / 45 m 13,133 ft / 4,003 m 234.23° 239.14° Asphalt 0 ft / 0 m 197 ft / 60 m

Approach Navaids

Runway Type Ident Frequency Range Bearing (true) Bearing (mag) Slope Elevation
06 Localiser IHA 110.50 MHz 18 nm / 33 km 54.23° 59.14° - 209 ft / 64 m (AMSL)
06 Glidescope IHA 110.50 MHz 10 nm / 19 km 54.22° 59.13° 3.00° 209 ft / 64 m (AMSL)

Popular Alternatives